SHIYAN 4 (SY-4)

Satellite information

Favourite Embed

Satellite Type and Status

PAYLOADIN ORBIT

Key statistics

Satellite SHIYAN 4 (SY-4) at a glance.

Uptime

4916

Days in orbit

Revolutions

≈ 14.3

Per day

Orbit

SSO

Sun Synchronous Orbit

Inclination

98.7

Latest

Satellite identification and parameters

Extended collection of information and parameters for SHIYAN 4 (SY-4).

Object identification

Identified? True

Debris? False

Object name: SHIYAN 4 (SY-4)

International designator: 2011-068B

Object number (NORAD): 37931

Object ID (CCSDS): 37931

Country: PEOPLES REPUBLIC OF CHINA (PRC)

Current information (Y/N): Y

RCS size: LARGE

Orbital parameters

Period: 100.635 minutes

Inclination: 98.7136 deg

SMA: 7166.806 km

Apoapsis: 804.3 km

Periapsis: 773.042 km

RAAN: 139.0771 deg

Eccentricy: 0.0021808

Argument of periapsis: 260.4708 deg

Mean anomaly: 272.8186 deg

Mean motion: 14.30916463 rev/day

Mean motion (dot): 0.00000258 rev/day2

B* drag term: 0.00011511 1/REarth

Two-line elements (TLE)

Creation date: May 6, 2025, 3:54 a.m.

Reference frame: TEME

Reference center: EARTH

Epoch: May 5, 2025, 8:06 p.m. UTC

TLE line 0: 0 SHIYAN 4 (SY-4)

TLE line 1: 1 37931U 11068B 25125.83817718 .00000258 00000-0 11511-3 0 9994

TLE line 2: 2 37931 98.7136 139.0771 0021808 260.4708 272.8186 14.30916463700630

Live tracking on map

Real-time ground track for satellite SHIYAN 4 (SY-4).

In-orbit conjunctions

There are no conjunctions computed for SHIYAN 4 (SY-4), at the moment. Check back to stay up to date, as we update our databases every day.

Go to all conjunctions

Associated space launch

SHIYAN 4 (SY-4) was lifted into orbit during the mission ‘Long March 2D | Shiyan Weixing 4 & Chuang Xin 1C’, on board a Long March 2D space rocket.

The launch took place on Nov. 20, 2011, 12:15 a.m. from Launch Area 4 (SLS-2 / 603).

For more information about the launch, click the button.

Launch to space Long March 2D | Shiyan Weixing 4 & Chuang Xin 1C
Long March 2D | Shiyan Weixing 4 & Chuang Xin 1C

Agency: N/A

Status: Launch Successful

Launch date: Nov. 20, 2011, 12:15 a.m. UTC

Rocket: Long March 2D

Launch pad: Launch Area 4 (SLS-2 / 603)

Location: Jiuquan Satellite Launch Center, People's Republic of China

...

Latest news about this satellite

There are no fresh news available about this satellite. Check back as we update our databases every day.


Newsletter sign-up

Weekly statistics, charts and insights to help you stay on top of the space industry.